Regional Weather Roundup
Issued by NWS

Home | Current Version | Previous Version | Graphics & Text | Print | Product List | Glossary On
Versions: 1 2 3 4 5 6 7 8 9 10 11 12 13 14 15 16 17 18 19 20 21 22 23 24 25 26 27 28 29 30 31 32 33 34 35 36 37 38 39 40 41 42 43 44 45 46 47 48 49 50
000
ASUS45 KABQ 241510
RWRNM
NEW MEXICO REGIONAL WEATHER ROUNDUP
NATIONAL WEATHER SERVICE ALBUQUERQUE NM
900 AM MDT TUE MAY 24 2016

NOTE: "FAIR" MEANS FEW OR NO CLOUDS BELOW 12,000 FEET AGL WITH NO
       SIGNIFICANT WEATHER OR OBSTRUCTIONS TO VISION.

      THIS PRODUCT IS RELEASED AS TWO VERSIONS.  ONE VERSION NEAR
      THE TOP OF THE HOUR CONTAINING PRELIMINARY DATA FROM ALBUQUERQUE
      AND OTHER STATIONS.  A FINAL VERSION WITH ADDITIONAL DATA IS
      ISSUED ABOUT 10 MINUTES AFTER THE HOUR.

NMZ501-503-504-510>518-241600-
NORTHWEST PLATEAU/NORTHCENTRAL MOUNTAINS

CITY           SKY/WX    TMP DP  RH WIND       PRES   REMARKS
FARMINGTON     FAIR      58  23  26 E8        30.00R
LOS ALAMOS     FAIR      58  20  22 NE5       30.11R
SANTA FE       FAIR      66  21  18 N6        30.05S
TAOS           FAIR      57  21  24 SE3       30.10S
ANGEL FIRE     FAIR      54  24  32 W14G24    30.14S

$$
NMZ402-403-502-505>509-241600-
WESTCENTRAL MOUNTAINS/SOUTHWEST MOUNTAINS

CITY           SKY/WX    TMP DP  RH WIND       PRES   REMARKS
GALLUP         FAIR      60  26  27 SW18      30.05S
GRANTS         FAIR      60  25  26 SE8       30.09S
SILVER CITY      N/A     66  27  22 CALM      30.09R

$$
NMZ407-409-411-412-241600-
SOUTHERN DESERTS

CITY           SKY/WX    TMP DP  RH WIND       PRES   REMARKS
LORDSBURG      FAIR      70  28  21 SE3       30.02R
DEMING         FAIR      69  29  22 W7        30.03R
LAS CRUCES     FAIR      72  28  20 W9        30.04R
HOLLOMAN AFB   FAIR      76  26  15 W9        30.00R
ALAMOGORDO     FAIR      73  23  15 CALM      30.02R
T OR C         FAIR      70  25  18 S12       30.01R

$$
NMZ519>523-241600-
CENTRAL VALLEYS/CENTRAL HIGHLANDS

CITY           SKY/WX    TMP DP  RH WIND       PRES   REMARKS
ALBUQUERQUE    FAIR      66  23  19 VRB3      30.03R
DOUBLE EAGLE   SUNNY     64  25  22 VRB6      30.06R
MORIARTY ARPT  FAIR      64  20  18 S5        30.07F
CLINES CORNERS FAIR      63  22  20 W14       30.08R
BELEN          FAIR      65  23  19 E3        30.03R
SOCORRO        FAIR      65  24  21 CALM      30.02S

$$
NMZ524>526-539-540-241600-
SOUTHCENTRAL MOUNTAINS

CITY           SKY/WX    TMP DP  RH WIND       PRES   REMARKS
RUIDOSO          N/A     64  19  17 SW21      30.11F

$$
NMZ527>531-241600-
NORTHEAST HIGHLANDS/NORTHEAST PLAINS

CITY           SKY/WX    TMP DP  RH WIND       PRES   REMARKS
LAS VEGAS      FAIR      66  14  13 SW9       30.05S
RATON          FAIR      64  28  25 S7        30.00R
CLAYTON        FAIR      78  31  17 NW6       29.93R

$$
NMZ532>537-241600-
EASTCENTRAL PLAINS

CITY           SKY/WX    TMP DP  RH WIND       PRES   REMARKS
TUCUMCARI      FAIR      73  30  20 NW5       29.91R
CANNON AFB     FAIR      72  53  50 W10       29.94S
CLOVIS AIRPORT FAIR      70  55  60 SW13      29.94S

$$
NMZ028-029-538-241600-
SOUTHEAST PLAINS

CITY           SKY/WX    TMP DP  RH WIND       PRES   REMARKS
ROSWELL        FAIR      75  25  15 SE6       29.93S
ARTESIA        FAIR      82  23  11 W17       29.94R
CARLSBAD       FAIR      84  23  10 W15       29.92S
HOBBS          SUNNY     75  59  57 SW10      29.95R


$$




USA.gov is the U.S. government's official web portal to all federal, state and local government web resources and services.